Weather History for CYMX - November, 2013

Change the Weather History Date:

Sunday, November 3, 2013

  Actual Average Record
Temperature  
Mean Temperature 30 °F -  
Max Temperature 39 °F - - ()
Min Temperature 21 °F - - ()
Degree Days  
Heating Degree Days 35    
Moisture  
Dew Point 14 °F    
Average Humidity 54    
Maximum Humidity 86    
Minimum Humidity 30    
Precipitation  
Precipitation 0.00 in - - ()
Sea Level Pressure  
Sea Level Pressure 30.29 in    
Wind  
Wind Speed 5 mph ()    
Max Wind Speed 10 mph    
Max Gust Speed -    
T = Trace of Precipitation, MM = Missing Value Source: Averaged Metar Reports

Daily Weather History Graph

Daily Weather History Graph

Search for Another Location

Airport or City:

Trip Planner

Search our weather history database for the weather conditions in past years. The results will help you decide how hot, cold, wet, or windy it might be!

Date:

Astronomy

Nov. 03, 2013 Rise Set
Actual Time 6:39 AM EST 4:39 PM EST
Civil Twilight 6:07 AM EST 5:10 PM EST
Nautical Twilight 5:32 AM EST 5:46 PM EST
Astronomical Twilight 4:58 AM EST 6:20 PM EST
Moon 6:40 AM EST (11/3) 4:51 PM EST (11/3)
Length of Visible Light 11h 02m
Length of Day
10h 00m
New Moon, 0% of the Moon is Illuminated
Nov 3
New Moon
Nov 10
First Quarter
Nov 17
Full
Nov 25
Last Quarter
Dec 2
New

Hourly Weather History & Observations

Time (EST) Temp. Windchill Dew Point Humidity Pressure Visibility Wind Dir Wind Speed Gust Speed Precip Events Conditions
12:00 AM 30.2 °F 25.4 °F 15.8 °F 55% 30.03 in 25.0 mi North 4.6 mph - N/A   Scattered Clouds
1:00 AM 28.4 °F 23.3 °F 15.8 °F 59% 30.04 in 25.0 mi NNW 4.6 mph - N/A   Partly Cloudy
1:00 AM 28.4 °F 22.2 °F 14.0 °F 55% 30.07 in 25.0 mi NNW 5.8 mph - N/A   Partly Cloudy
2:00 AM 26.6 °F 22.6 °F 15.8 °F 64% 30.09 in 25.0 mi NW 3.5 mph - N/A   Clear
3:00 AM 24.8 °F - 14.0 °F 64% 30.12 in 25.0 mi WNW 2.3 mph - N/A   Clear
4:00 AM 23.0 °F 18.4 °F 17.6 °F 80% 30.14 in 25.0 mi WNW 3.5 mph - N/A   Clear
5:00 AM 23.0 °F 18.4 °F 15.8 °F 74% 30.17 in 25.0 mi West 3.5 mph - N/A   Clear
6:00 AM 21.2 °F 16.4 °F 15.8 °F 80% 30.21 in 45.0 mi WNW 3.5 mph - N/A   Partly Cloudy
7:00 AM 21.2 °F 16.4 °F 17.6 °F 86% 30.25 in 45.0 mi WNW 3.5 mph - N/A   Partly Cloudy
8:00 AM 26.6 °F 22.6 °F 19.4 °F 74% 30.29 in 45.0 mi NW 3.5 mph - N/A   Partly Cloudy
9:00 AM 32.0 °F 25.6 °F 15.8 °F 51% 30.31 in 45.0 mi North 6.9 mph - N/A   Partly Cloudy
10:00 AM 33.8 °F 25.8 °F 14.0 °F 44% 30.31 in 45.0 mi NNW 10.4 mph - N/A   Partly Cloudy
11:00 AM 35.6 °F 29.2 °F 14.0 °F 41% 30.33 in 45.0 mi North 8.1 mph - N/A   Partly Cloudy
12:00 PM 37.4 °F 33.8 °F 12.2 °F 36% 30.32 in 45.0 mi North 4.6 mph - N/A   Partly Cloudy
1:00 PM 37.4 °F 31.4 °F 10.4 °F 33% 30.32 in 45.0 mi North 8.1 mph - N/A   Partly Cloudy
2:00 PM 39.2 °F 32.5 °F 10.4 °F 31% 30.34 in 45.0 mi North 10.4 mph - N/A   Partly Cloudy
3:00 PM 37.4 °F 32.8 °F 10.4 °F 33% 30.36 in 45.0 mi NW 5.8 mph - N/A   Partly Cloudy
4:00 PM 37.4 °F 30.8 °F 8.6 °F 30% 30.38 in 45.0 mi NNW 9.2 mph - N/A   Partly Cloudy
5:00 PM 33.8 °F 27.7 °F 12.2 °F 41% 30.40 in 45.0 mi North 6.9 mph - N/A   Partly Cloudy
6:00 PM 30.2 °F 24.3 °F 12.2 °F 47% 30.43 in 25.0 mi NNW 5.8 mph - N/A   Partly Cloudy
7:00 PM 30.2 °F 25.4 °F 12.2 °F 47% 30.46 in 25.0 mi NW 4.6 mph - N/A   Partly Cloudy
8:00 PM 28.4 °F 22.2 °F 12.2 °F 51% 30.48 in 25.0 mi NW 5.8 mph - N/A   Clear
9:00 PM 26.6 °F 21.2 °F 14.0 °F 59% 30.50 in 25.0 mi NW 4.6 mph - N/A   Clear
10:00 PM 24.8 °F 19.1 °F 14.0 °F 64% 30.52 in 25.0 mi NW 4.6 mph - N/A   Clear